| time (UTC) | temp F | wind direction | speed MPH | gust MPH | rain 1hr in | rain 24hr in | rain mn in | humidity % | barometer mb |
| 20260505013033 | 68 | 179 | 5.0 | 17.0 | 0.00 | 0.00 | 0.00 | 54 | 997.2 |
| 20260505011530 | 69 | 182 | 4.0 | 14.0 | 0.00 | 0.00 | 0.00 | 52 | 997.0 |
| 20260505010031 | 69 | 136 | 4.0 | 15.0 | 0.00 | 0.00 | 0.00 | 49 | 996.9 |
| 20260505004530 | 70 | 197 | 3.0 | 11.0 | 0.00 | 0.00 | 0.00 | 45 | 996.3 |
| 20260505003029 | 71 | 200 | 3.0 | 7.0 | 0.00 | 0.00 | 0.00 | 43 | 996.2 |
| 20260505001529 | 72 | 211 | 1.0 | 11.0 | 0.00 | 0.00 | 0.00 | 42 | 995.8 |
| 20260505000043 | 73 | 200 | 2.0 | 10.0 | 0.00 | 0.00 | 0.00 | 42 | 995.8 |
| 20260504234535 | 74 | 159 | 5.0 | 17.0 | 0.00 | 0.00 | 0.00 | 41 | 995.7 |
| 20260504233030 | 75 | 203 | 4.0 | 22.0 | 0.00 | 0.00 | 0.00 | 38 | 996.1 |
| 20260504231531 | 77 | 273 | 8.0 | 21.0 | 0.00 | 0.00 | 0.00 | 33 | 996.2 |
| 20260504230029 | 79 | 209 | 10.0 | 20.0 | 0.00 | 0.00 | 0.00 | 32 | 996.3 |
| 20260504224530 | 79 | 225 | 5.0 | 21.0 | 0.00 | 0.00 | 0.00 | 32 | 996.3 |
| 20260504223032 | 79 | 213 | 5.0 | 19.0 | 0.00 | 0.00 | 0.00 | 33 | 996.4 |
| 20260504221530 | 80 | 207 | 3.0 | 17.0 | 0.00 | 0.00 | 0.00 | 31 | 996.4 |
| 20260504220043 | 80 | 310 | 5.0 | 13.0 | 0.00 | 0.00 | 0.00 | 34 | 996.5 |
| 20260504214534 | 79 | 255 | 6.0 | 14.0 | 0.00 | 0.00 | 0.00 | 29 | 996.6 |
| 20260504213041 | 80 | 302 | 4.0 | 16.0 | 0.00 | 0.00 | 0.00 | 30 | 996.7 |
| 20260504211539 | 81 | 225 | 7.0 | 21.0 | 0.00 | 0.00 | 0.00 | 28 | 997.0 |
| 20260504210033 | 81 | 213 | 5.0 | 15.0 | 0.00 | 0.00 | 0.00 | 28 | 997.1 |
| 20260504204538 | 81 | 242 | 5.0 | 26.0 | 0.00 | 0.00 | 0.00 | 27 | 997.2 |
| 20260504203033 | 81 | 167 | 5.0 | 21.0 | 0.00 | 0.00 | 0.00 | 31 | 997.2 |
| 20260504201529 | 81 | 209 | 5.0 | 17.0 | 0.00 | 0.00 | 0.00 | 30 | 997.6 |
| 20260504200033 | 81 | 222 | 5.0 | 16.0 | 0.00 | 0.00 | 0.00 | 29 | 997.7 |
| 20260504194532 | 80 | 217 | 5.0 | 18.0 | 0.00 | 0.00 | 0.00 | 27 | 998.0 |
| 20260504193031 | 80 | 250 | 8.0 | 24.0 | 0.00 | 0.00 | 0.00 | 28 | 998.2 |
| 20260504191535 | 80 | 271 | 7.0 | 19.0 | 0.00 | 0.00 | 0.00 | 30 | 998.4 |
| 20260504190034 | 80 | 190 | 10.0 | 19.0 | 0.00 | 0.00 | 0.00 | 28 | 998.4 |
| 20260504184530 | 80 | 338 | 6.0 | 18.0 | 0.00 | 0.00 | 0.00 | 30 | 998.5 |
| 20260504183036 | 79 | 222 | 6.0 | 20.0 | 0.00 | 0.00 | 0.00 | 33 | 998.5 |
| 20260504181535 | 79 | 301 | 9.0 | 21.0 | 0.00 | 0.00 | 0.00 | 28 | 998.4 |
| 20260504180030 | 79 | 214 | 7.0 | 17.0 | 0.00 | 0.00 | 0.00 | 31 | 998.6 |
| 20260504174531 | 79 | 248 | 8.0 | 20.0 | 0.00 | 0.00 | 0.00 | 32 | 998.8 |
| 20260504173032 | 78 | 174 | 7.0 | 26.0 | 0.00 | 0.00 | 0.00 | 29 | 999.0 |
| 20260504171530 | 78 | 259 | 5.0 | 20.0 | 0.00 | 0.00 | 0.00 | 35 | 999.4 |
| 20260504081532 | 49 | 0 | 0.0 | 3.0 | 0.00 | 0.00 | 0.00 | 77 | 1002.7 |
| 20260504044535 | 52 | 218 | 1.0 | 6.0 | 0.00 | 0.00 | 0.00 | 75 | 1004.3 |
| 20260504043041 | 52 | 188 | 1.0 | 4.0 | 0.00 | 0.00 | 0.00 | 76 | 1004.2 |
| 20260504041532 | 51 | 196 | 2.0 | 6.0 | 0.00 | 0.00 | 0.00 | 77 | 1004.3 |
| 20260504040029 | 50 | 202 | 2.0 | 6.0 | 0.00 | 0.00 | 0.00 | 78 | 1004.4 |
| 20260504034531 | 50 | 201 | 2.0 | 10.0 | 0.00 | 0.00 | 0.00 | 78 | 1004.6 |
| 20260504033030 | 49 | 162 | 3.0 | 7.0 | 0.00 | 0.00 | 0.00 | 78 | 1004.7 |
| 20260504031530 | 50 | 200 | 0.0 | 4.0 | 0.00 | 0.00 | 0.00 | 76 | 1004.8 |
| 20260504030030 | 50 | 0 | 0.0 | 5.0 | 0.00 | 0.00 | 0.00 | 74 | 1004.8 |
| 20260504024532 | 51 | 0 | 0.0 | 0.0 | 0.00 | 0.00 | 0.00 | 73 | 1004.9 |
| 20260504023029 | 52 | 0 | 0.0 | 0.0 | 0.00 | 0.00 | 0.00 | 72 | 1004.7 |
| 20260504021534 | 53 | 0 | 0.0 | 0.0 | 0.00 | 0.00 | 0.00 | 70 | 1004.8 |
| 20260504020037 | 54 | 0 | 0.0 | 0.0 | 0.00 | 0.00 | 0.00 | 67 | 1004.7 |
| 20260504014537 | 56 | 0 | 0.0 | 0.0 | 0.00 | 0.00 | 0.00 | 64 | 1004.6 |